When you browse on this site, cookies collect data to enhance your experience and personalize the content and advertising you see.
Visit our Privacy Policy to learn more. By continuing to use the site, you agree to this use of cookies and data.
  • In Hungary
  • List of Countries
  • For 7 days
  • Water Temperature
  • Weather Map
  • News
  • Weather Widgets
  • user-avatar
    Login

    Hourly Weather Pogranichnyy

    Today, 18 November, Monday

    Time Temperature Precipitation Wind Pressure Humidity
    00:00 -6°C° 0.2 mm 1 mps 744 mmHg 79%
    01:00 -4°C° 1.6 mm 1 mps 742 mmHg 84%
    02:00 -4°C° 1.6 mm 1 mps 740 mmHg 89%
    03:00 -4°C° 0 mm 1 mps 739 mmHg 94%
    04:00 -4°C° 2.1 mm 1 mps 738 mmHg 95%
    05:00 -5°C° 2.1 mm 2 mps 736 mmHg 95%
    06:00 -5°C° 2.1 mm 2 mps 735 mmHg 95%
    07:00 -7°C° 2.1 mm 4 mps 735 mmHg 91%
    08:00 -6°C° 2.1 mm 6 mps 735 mmHg 88%
    09:00 -5°C° 0 mm 5 mps 736 mmHg 85%
    10:00 -6°C° 0.1 mm 6 mps 737 mmHg 80%
    11:00 -8°C° 0.1 mm 7 mps 738 mmHg 76%
    12:00 -10°C° 0.1 mm 8 mps 739 mmHg 72%
    13:00 -11°C° 0 mm 7 mps 739 mmHg 71%
    14:00 -12°C° 0 mm 7 mps 740 mmHg 71%
    15:00 -11°C° 0 mm 5 mps 740 mmHg 74%
    16:00 -12°C° 0 mm 4 mps 741 mmHg 76%
    17:00 -13°C° 0 mm 3 mps 741 mmHg 78%
    18:00 -15°C° 0 mm 3 mps 742 mmHg 81%
    19:00 -14°C° 0 mm 2 mps 742 mmHg 82%
    20:00 -15°C° 0 mm 2 mps 742 mmHg 83%
    21:00 -15°C° 0 mm 2 mps 742 mmHg 84%
    22:00 -16°C° 0 mm 2 mps 742 mmHg 84%
    23:00 -16°C° 0 mm 2 mps 742 mmHg 84%

    Tomorrow, 19 November, Tuesday

    Time Temperature Precipitation Wind Pressure Humidity
    00:00 -17°C° 0 mm 2 mps 741 mmHg 84%
    01:00 -17°C° 0 mm 2 mps 741 mmHg 85%
    02:00 -17°C° 0 mm 2 mps 741 mmHg 86%
    03:00 -18°C° 0 mm 2 mps 741 mmHg 86%
    04:00 -16°C° 0 mm 1 mps 741 mmHg 86%
    05:00 -16°C° 0 mm 1 mps 741 mmHg 86%
    06:00 -16°C° 0 mm 1 mps 741 mmHg 86%
    07:00 -17°C° 0 mm 2 mps 742 mmHg 83%
    08:00 -17°C° 0 mm 3 mps 742 mmHg 80%
    09:00 -16°C° 0 mm 3 mps 742 mmHg 78%
    10:00 -17°C° 0 mm 4 mps 742 mmHg 75%
    11:00 -17°C° 0 mm 5 mps 742 mmHg 72%
    12:00 -16°C° 0 mm 6 mps 743 mmHg 69%
    13:00 -16°C° 0 mm 6 mps 743 mmHg 71%
    14:00 -16°C° 0 mm 6 mps 743 mmHg 72%
    15:00 -16°C° 0 mm 6 mps 743 mmHg 73%
    16:00 -17°C° 0 mm 5 mps 744 mmHg 75%
    17:00 -17°C° 0 mm 5 mps 744 mmHg 77%
    18:00 -18°C° 0 mm 5 mps 745 mmHg 79%
    19:00 -18°C° 0 mm 5 mps 745 mmHg 78%
    20:00 -18°C° 0 mm 6 mps 746 mmHg 77%
    21:00 -18°C° 0 mm 6 mps 747 mmHg 77%
    22:00 -18°C° 0 mm 6 mps 747 mmHg 76%
    23:00 -20°C° 0 mm 6 mps 748 mmHg 76%

    Day after tomorrow, 20 November, Wednesday

    Time Temperature Precipitation Wind Pressure Humidity
    00:00 -20°C° 0 mm 6 mps 749 mmHg 75%
    01:00 -20°C° 0 mm 6 mps 750 mmHg 76%
    02:00 -20°C° 0 mm 6 mps 750 mmHg 77%
    03:00 -19°C° 0 mm 5 mps 751 mmHg 78%
    04:00 -19°C° 0 mm 5 mps 751 mmHg 79%
    05:00 -18°C° 0 mm 4 mps 752 mmHg 80%
    06:00 -17°C° 0 mm 3 mps 752 mmHg 81%
    07:00 -16°C° 0 mm 3 mps 753 mmHg 80%
    08:00 -16°C° 0 mm 3 mps 753 mmHg 79%
    09:00 -15°C° 0 mm 3 mps 753 mmHg 78%
    10:00 -13°C° 0 mm 3 mps 753 mmHg 76%
    11:00 -12°C° 0 mm 3 mps 753 mmHg 73%
    12:00 -9°C° 0 mm 3 mps 753 mmHg 71%
    13:00 -9°C° 0 mm 3 mps 753 mmHg 72%
    14:00 -9°C° 0 mm 3 mps 753 mmHg 72%
    15:00 -8°C° 0 mm 3 mps 753 mmHg 73%
    16:00 -9°C° 0 mm 2 mps 753 mmHg 77%
    17:00 -12°C° 0 mm 2 mps 753 mmHg 80%
    18:00 -14°C° 0 mm 2 mps 753 mmHg 83%
    19:00 -14°C° 0 mm 2 mps 754 mmHg 84%
    20:00 -13°C° 0 mm 1 mps 754 mmHg 84%
    21:00 -13°C° 0 mm 1 mps 754 mmHg 84%
    22:00 -13°C° 0 mm 1 mps 754 mmHg 84%
    23:00 -14°C° 0 mm 1 mps 754 mmHg 84%

    21 November, Thursday

    Time Temperature Precipitation Wind Pressure Humidity
    00:00 -14°C° 0 mm 1 mps 755 mmHg 84%
    01:00 -14°C° 0 mm 1 mps 755 mmHg 82%
    02:00 -14°C° 0 mm 1 mps 755 mmHg 80%
    03:00 -14°C° 0 mm 1 mps 755 mmHg 78%
    04:00 -13°C° 0 mm 1 mps 755 mmHg 77%
    05:00 -13°C° 0 mm 1 mps 755 mmHg 76%
    06:00 -13°C° 0 mm 1 mps 754 mmHg 74%
    07:00 -12°C° 0 mm 1 mps 755 mmHg 74%
    08:00 -11°C° 0 mm 1 mps 755 mmHg 73%
    09:00 -9°C° 0 mm 1 mps 756 mmHg 73%
    10:00 -7°C° 0 mm 1 mps 756 mmHg 71%
    11:00 -4°C° 0 mm 1 mps 755 mmHg 69%
    12:00 -2°C° 0 mm 1 mps 755 mmHg 68%
    13:00 -2°C° 0 mm 1 mps 755 mmHg 71%
    14:00 -2°C° 0 mm 1 mps 755 mmHg 75%
    15:00 -1°C° 0 mm 1 mps 755 mmHg 79%
    16:00 -3°C° 0 mm 1 mps 755 mmHg 82%
    17:00 -6°C° 0 mm 1 mps 755 mmHg 85%
    18:00 -8°C° 0 mm 0 mps 755 mmHg 89%
    19:00 -8°C° 0 mm 0 mps 755 mmHg 89%
    20:00 -8°C° 0 mm 0 mps 755 mmHg 89%
    21:00 -8°C° 0 mm 1 mps 755 mmHg 89%
    22:00 -8°C° 0 mm 1 mps 755 mmHg 90%
    23:00 -8°C° 0 mm 1 mps 755 mmHg 90%

    22 November, Friday

    Time Temperature Precipitation Wind Pressure Humidity
    00:00 -7°C° 0 mm 1 mps 755 mmHg 90%
    01:00 -7°C° 0 mm 1 mps 755 mmHg 90%
    02:00 -7°C° 0 mm 1 mps 754 mmHg 90%
    03:00 -7°C° 0 mm 1 mps 754 mmHg 90%
    04:00 -6°C° 0 mm 1 mps 754 mmHg 90%
    05:00 -6°C° 0 mm 1 mps 754 mmHg 89%
    06:00 -4°C° 0 mm 1 mps 754 mmHg 89%
    07:00 -3°C° 0 mm 1 mps 754 mmHg 88%
    08:00 -2°C° 0 mm 1 mps 754 mmHg 87%
    09:00 -2°C° 0 mm 2 mps 754 mmHg 86%
    10:00 -1°C° 0 mm 2 mps 754 mmHg 88%
    11:00 +2°C° 0 mm 2 mps 754 mmHg 89%
    12:00 +3°C° 0 mm 2 mps 753 mmHg 91%
    13:00 +3°C° 0 mm 2 mps 753 mmHg 93%
    14:00 +3°C° 0 mm 2 mps 753 mmHg 95%
    15:00 +4°C° 0 mm 1 mps 752 mmHg 97%
    16:00 +2°C° 0 mm 2 mps 752 mmHg 97%
    17:00 +1°C° 0 mm 2 mps 752 mmHg 97%
    18:00 -1°C° 0 mm 2 mps 752 mmHg 97%
    19:00 -1°C° 0 mm 2 mps 752 mmHg 97%
    20:00 -1°C° 0 mm 2 mps 751 mmHg 97%
    21:00 -1°C° 0 mm 2 mps 751 mmHg 97%
    22:00 -2°C° 0 mm 2 mps 751 mmHg 95%
    23:00 -2°C° 0 mm 2 mps 750 mmHg 94%

    23 November, Saturday

    Time Temperature Precipitation Wind Pressure Humidity
    00:00 -2°C° 0 mm 2 mps 750 mmHg 92%
    01:00 -1°C° 0 mm 2 mps 749 mmHg 91%
    02:00 -1°C° 0 mm 2 mps 749 mmHg 90%
    03:00 -1°C° 0 mm 2 mps 748 mmHg 89%
    04:00 +1°C° 0 mm 2 mps 748 mmHg 88%
    05:00 +1°C° 0 mm 2 mps 747 mmHg 87%
    06:00 +2°C° 0 mm 2 mps 747 mmHg 85%
    07:00 +1°C° 0.4 mm 3 mps 747 mmHg 88%
    08:00 +2°C° 0.4 mm 3 mps 746 mmHg 91%
    09:00 +3°C° 0.4 mm 3 mps 746 mmHg 94%
    10:00 +3°C° 0.1 mm 3 mps 746 mmHg 95%
    11:00 +4°C° 0.1 mm 3 mps 745 mmHg 95%
    12:00 +4°C° 0.1 mm 3 mps 745 mmHg 95%
    13:00 +4°C° 0 mm 3 mps 745 mmHg 94%
    14:00 +5°C° 0 mm 3 mps 745 mmHg 94%
    15:00 +5°C° 0 mm 3 mps 746 mmHg 94%
    16:00 +4°C° 0 mm 3 mps 746 mmHg 92%
    17:00 +3°C° 0 mm 2 mps 747 mmHg 90%
    18:00 +2°C° 0 mm 2 mps 748 mmHg 88%
    19:00 +1°C° 0 mm 2 mps 749 mmHg 84%
    20:00 -2°C° 0 mm 3 mps 750 mmHg 79%
    21:00 -5°C° 0 mm 3 mps 750 mmHg 75%
    22:00 -5°C° 0 mm 3 mps 751 mmHg 76%
    23:00 -5°C° 0 mm 3 mps 751 mmHg 77%
    Show more